Time,TemperatureF,DewpointF,PressureIn,WindDirection,WindDirectionDegrees,WindSpeedMPH,WindSpeedGustMPH,Humidity,HourlyPrecipIn,Conditions,Clouds,dailyrainin,SolarRadiationWatts/m^2,SoftwareType,DateUTC
2013-12-08 00:00:00,71.5,62.8,29.87,NW,305,0.0,0.0,74,0.00,,,0.00,0,Wunderground v.1.15,2013-12-08 10:00:00,
2013-12-08 00:30:00,70.6,60.7,29.87,NW,305,0.0,0.0,71,0.00,,,0.00,0,Wunderground v.1.15,2013-12-08 10:30:00,
2013-12-08 01:00:00,69.6,59.0,29.86,NW,304,1.0,3.0,69,0.00,,,0.00,0,Wunderground v.1.15,2013-12-08 11:00:00,
2013-12-08 01:30:00,69.9,58.9,29.85,NW,304,2.0,2.0,68,0.00,,,0.00,0,Wunderground v.1.15,2013-12-08 11:30:00,
2013-12-08 02:00:00,69.9,57.6,29.84,NW,304,1.0,1.0,65,0.00,,,0.00,0,Wunderground v.1.15,2013-12-08 12:00:00,
2013-12-08 02:30:00,69.8,57.5,29.83,East,87,2.0,2.0,65,0.00,,,0.00,0,Wunderground v.1.15,2013-12-08 12:30:00,
2013-12-08 03:00:00,69.6,57.3,29.83,ESE,103,1.0,1.0,65,0.00,,,0.00,0,Wunderground v.1.15,2013-12-08 13:00:00,
2013-12-08 03:30:00,69.4,57.1,29.83,ESE,103,2.0,3.0,65,0.00,,,0.00,0,Wunderground v.1.15,2013-12-08 13:30:00,
2013-12-08 04:00:00,68.9,56.2,29.83,ESE,107,2.0,2.0,64,0.00,,,0.00,0,Wunderground v.1.15,2013-12-08 14:00:00,
2013-12-08 04:30:00,68.9,56.6,29.84,SE,130,3.0,3.0,65,0.00,,,0.00,0,Wunderground v.1.15,2013-12-08 14:30:00,
2013-12-08 05:00:00,68.9,56.6,29.84,SE,130,2.0,4.0,65,0.00,,,0.00,0,Wunderground v.1.15,2013-12-08 15:00:00,
2013-12-08 05:30:00,69.8,57.5,29.86,SE,131,2.0,2.0,65,0.00,,,0.00,0,Wunderground v.1.15,2013-12-08 15:30:00,
2013-12-08 06:00:00,70.8,58.4,29.86,SE,131,0.0,0.0,65,0.00,,,0.00,0,Wunderground v.1.15,2013-12-08 16:00:00,
2013-12-08 06:30:00,70.6,59.1,29.88,SE,131,0.0,0.0,67,0.00,,,0.00,0,Wunderground v.1.15,2013-12-08 16:30:00,
2013-12-08 07:00:00,69.9,59.3,29.89,SE,131,0.0,0.0,69,0.00,,,0.00,9,Wunderground v.1.15,2013-12-08 17:00:00,
2013-12-08 07:30:00,70.1,60.3,29.89,SE,131,1.0,1.0,71,0.00,,,0.00,49,Wunderground v.1.15,2013-12-08 17:30:00,
2013-12-08 08:00:00,71.8,61.9,29.90,SE,130,1.0,3.0,71,0.00,,,0.00,100,Wunderground v.1.15,2013-12-08 18:00:00,
2013-12-08 08:30:00,74.2,61.7,29.92,SE,130,0.0,0.0,65,0.00,,,0.00,172,Wunderground v.1.15,2013-12-08 18:30:00,
2013-12-08 09:00:00,75.6,61.7,29.93,SE,128,0.0,0.0,62,0.00,,,0.00,200,Wunderground v.1.15,2013-12-08 19:00:00,
2013-12-08 09:30:00,76.8,63.7,29.93,SE,128,1.0,2.0,64,0.00,,,0.00,381,Wunderground v.1.15,2013-12-08 19:30:00,
2013-12-08 10:00:00,78.1,61.6,29.93,NNW,333,2.0,4.0,57,0.00,,,0.00,422,Wunderground v.1.15,2013-12-08 20:00:00,
2013-12-08 10:30:00,78.6,61.6,29.93,NNW,331,2.0,4.0,56,0.00,,,0.00,315,Wunderground v.1.15,2013-12-08 20:30:00,
2013-12-08 11:00:00,78.6,62.6,29.92,West,278,2.0,2.0,58,0.00,,,0.00,322,Wunderground v.1.15,2013-12-08 21:00:00,
2013-12-08 11:30:00,79.4,63.3,29.92,West,280,2.0,5.0,58,0.00,,,0.00,561,Wunderground v.1.15,2013-12-08 21:30:00,
2013-12-08 12:00:00,80.1,63.0,29.90,West,279,1.0,1.0,56,0.00,,,0.00,468,Wunderground v.1.15,2013-12-08 22:00:00,
2013-12-08 12:30:00,79.4,62.8,29.89,West,281,1.0,1.0,57,0.00,,,0.00,236,Wunderground v.1.15,2013-12-08 22:30:00,
2013-12-08 13:00:00,79.6,63.5,29.88,West,281,0.0,0.0,58,0.00,,,0.00,183,Wunderground v.1.15,2013-12-08 23:00:00,
2013-12-08 13:30:00,79.0,63.4,29.86,West,277,1.0,1.0,59,0.00,,,0.00,204,Wunderground v.1.15,2013-12-08 23:30:00,
2013-12-08 14:00:00,80.3,61.1,29.84,East,82,5.0,6.0,52,0.00,,,0.00,213,Wunderground v.1.15,2013-12-09 00:00:00,
2013-12-08 14:30:00,81.2,61.4,29.82,ENE,63,4.0,4.0,51,0.00,,,0.00,153,Wunderground v.1.15,2013-12-09 00:30:00,
2013-12-08 15:00:00,81.8,60.8,29.82,East,90,4.0,5.0,49,0.00,,,0.00,149,Wunderground v.1.15,2013-12-09 01:00:00,
2013-12-08 15:30:00,83.4,60.4,29.81,ENE,67,3.0,3.0,46,0.00,,,0.00,225,Wunderground v.1.15,2013-12-09 01:30:00,
2013-12-08 16:00:00,81.8,65.6,29.83,NNW,330,4.0,4.0,58,0.00,,,0.00,278,Wunderground v.1.15,2013-12-09 02:00:00,
2013-12-08 16:30:00,80.1,65.0,29.85,WSW,250,2.0,2.0,60,0.00,,,0.00,111,Wunderground v.1.15,2013-12-09 02:30:00,
2013-12-08 17:00:00,79.0,66.7,29.86,West,281,1.0,2.0,66,0.00,,,0.00,77,Wunderground v.1.15,2013-12-09 03:00:00,
2013-12-08 17:30:00,77.7,67.5,29.88,West,279,3.0,3.0,71,0.00,,,0.00,23,Wunderground v.1.15,2013-12-09 03:30:00,
2013-12-08 18:00:00,76.8,66.7,29.89,West,279,1.0,1.0,71,0.00,,,0.00,0,Wunderground v.1.15,2013-12-09 04:00:00,
2013-12-08 18:30:00,76.5,67.2,29.90,West,279,0.0,0.0,73,0.00,,,0.00,0,Wunderground v.1.15,2013-12-09 04:30:00,
2013-12-08 19:00:00,76.1,67.6,29.91,West,279,0.0,0.0,75,0.00,,,0.00,0,Wunderground v.1.15,2013-12-09 05:00:00,
2013-12-08 19:30:00,75.6,67.1,29.92,West,279,0.0,0.0,75,0.00,,,0.00,0,Wunderground v.1.15,2013-12-09 05:30:00,
2013-12-08 20:00:00,74.9,66.4,29.92,West,279,0.0,0.0,75,0.00,,,0.00,0,Wunderground v.1.15,2013-12-09 06:00:00,
2013-12-08 20:30:00,74.2,65.4,29.92,SE,132,3.0,3.0,74,0.00,,,0.00,0,Wunderground v.1.15,2013-12-09 06:30:00,
2013-12-08 21:00:00,74.4,65.6,29.93,SE,129,2.0,2.0,74,0.00,,,0.00,0,Wunderground v.1.15,2013-12-09 07:00:00,
2013-12-08 21:30:00,74.4,63.6,29.92,SE,128,1.0,1.0,69,0.00,,,0.00,0,Wunderground v.1.15,2013-12-09 07:30:00,
2013-12-08 22:00:00,74.4,63.1,29.92,SE,128,0.0,0.0,68,0.00,,,0.00,0,Wunderground v.1.15,2013-12-09 08:00:00,
2013-12-08 22:30:00,74.0,61.5,29.91,SE,128,1.0,2.0,65,0.00,,,0.00,0,Wunderground v.1.15,2013-12-09 08:30:00,
2013-12-08 23:00:00,73.9,60.5,29.91,SE,128,1.0,2.0,63,0.00,,,0.00,0,Wunderground v.1.15,2013-12-09 09:00:00,
2013-12-08 23:30:00,74.0,59.7,29.90,SE,128,2.0,2.0,61,0.00,,,0.00,0,Wunderground v.1.15,2013-12-09 09:30:00,